TimeCST,TemperatureF,Dew PointF,Humidity,Sea Level PressureIn,VisibilityMPH,Wind Direction,Wind SpeedMPH,Gust SpeedMPH,PrecipitationIn,Events,Conditions,WindDirDegrees,DateUTC
12:52 AM,48.0,36.0,63,29.83,10.0,SSW,13.8,-,N/A,,Clear,200,2012-01-31 06:52:00
1:52 AM,48.9,37.0,64,29.82,10.0,SSW,16.1,-,N/A,,Clear,200,2012-01-31 07:52:00
2:52 AM,48.9,37.9,66,29.81,10.0,SSW,16.1,-,N/A,,Clear,200,2012-01-31 08:52:00
3:52 AM,48.0,37.9,68,29.80,10.0,SSW,17.3,24.2,N/A,,Clear,210,2012-01-31 09:52:00
4:52 AM,48.9,39.0,69,29.80,10.0,SSW,16.1,-,N/A,,Clear,210,2012-01-31 10:52:00
5:52 AM,43.0,37.0,80,29.80,10.0,South,12.7,-,N/A,,Clear,190,2012-01-31 11:52:00
6:52 AM,46.0,39.0,76,29.80,10.0,SSW,17.3,-,N/A,,Clear,200,2012-01-31 12:52:00
7:52 AM,46.0,39.0,76,29.81,10.0,SSW,18.4,24.2,N/A,,Clear,200,2012-01-31 13:52:00
8:52 AM,48.9,39.9,71,29.81,10.0,SSW,18.4,27.6,N/A,,Clear,210,2012-01-31 14:52:00
9:52 AM,52.0,43.0,71,29.81,10.0,SW,16.1,26.5,N/A,,Clear,220,2012-01-31 15:52:00
10:37 AM,53.6,44.6,72,29.81,10.0,SW,16.1,-,N/A,,Mostly Cloudy,220,2012-01-31 16:37:00
10:52 AM,53.1,44.1,71,29.83,10.0,SW,16.1,-,N/A,,Overcast,220,2012-01-31 16:52:00
11:52 AM,55.9,46.0,69,29.81,10.0,WSW,18.4,-,N/A,,Overcast,240,2012-01-31 17:52:00
11:59 AM,55.4,46.4,72,29.79,10.0,SW,18.4,24.2,N/A,,Overcast,230,2012-01-31 17:59:00
12:52 PM,57.0,46.9,69,29.78,10.0,WSW,15.0,-,N/A,,Mostly Cloudy,240,2012-01-31 18:52:00
1:22 PM,55.4,46.4,72,29.77,9.0,WSW,12.7,-,N/A,,Overcast,240,2012-01-31 19:22:00
1:52 PM,55.0,46.0,72,29.78,9.0,SW,8.1,-,N/A,,Overcast,230,2012-01-31 19:52:00
2:17 PM,53.6,46.4,77,29.77,9.0,SW,9.2,-,N/A,,Overcast,230,2012-01-31 20:17:00
2:52 PM,55.9,46.9,72,29.78,9.0,WSW,10.4,-,N/A,,Overcast,250,2012-01-31 20:52:00
2:59 PM,55.4,46.4,72,29.77,9.0,WSW,9.2,-,N/A,,Overcast,250,2012-01-31 20:59:00
7:52 PM,41.0,36.0,82,29.91,8.0,WNW,8.1,-,N/A,,Unknown,290,2012-02-01 01:52:00
8:52 PM,41.0,35.1,79,29.94,10.0,WNW,10.4,-,N/A,,Clear,300,2012-02-01 02:52:00
9:52 PM,35.1,30.9,85,29.96,10.0,WNW,6.9,-,N/A,,Clear,290,2012-02-01 03:52:00
10:52 PM,34.0,30.0,85,29.97,10.0,West,6.9,-,N/A,,Clear,280,2012-02-01 04:52:00
11:52 PM,34.0,30.0,85,29.99,10.0,West,8.1,-,N/A,,Clear,260,2012-02-01 05:52:00